TimeEET,TemperatureF,Dew PointF,Humidity,Sea Level PressureIn,VisibilityMPH,Wind Direction,Wind SpeedMPH,Gust SpeedMPH,PrecipitationIn,Events,Conditions,WindDirDegrees,DateUTC
12:20 AM,46.4,42.8,87,30.39,-9999.0,Calm,Calm,-,N/A,,Clear,0,2012-03-17 22:20:00
12:50 AM,44.6,42.8,93,30.39,-9999.0,Calm,Calm,-,N/A,,Clear,0,2012-03-17 22:50:00
1:20 AM,42.8,41.0,93,30.39,-9999.0,Calm,Calm,-,N/A,,Clear,0,2012-03-17 23:20:00
1:50 AM,44.6,41.0,87,30.36,-9999.0,Calm,Calm,-,N/A,,Clear,0,2012-03-17 23:50:00
2:20 AM,44.6,42.8,93,30.36,-9999.0,Calm,Calm,-,N/A,,Clear,0,2012-03-18 00:20:00
2:50 AM,42.8,41.0,93,30.36,-9999.0,Calm,Calm,-,N/A,,Clear,0,2012-03-18 00:50:00
3:20 AM,42.8,41.0,93,30.36,-9999.0,Calm,Calm,-,N/A,,Clear,0,2012-03-18 01:20:00
3:50 AM,42.8,39.2,87,30.36,-9999.0,Calm,Calm,-,N/A,,Clear,0,2012-03-18 01:50:00
4:20 AM,42.8,39.2,87,30.36,-9999.0,Calm,Calm,-,N/A,,Clear,0,2012-03-18 02:20:00
4:50 AM,42.8,39.2,87,30.36,-9999.0,NNW,4.6,-,N/A,,Clear,330,2012-03-18 02:50:00
5:20 AM,42.8,39.2,87,30.36,-9999.0,Calm,Calm,-,N/A,,Clear,0,2012-03-18 03:20:00
5:50 AM,42.8,39.2,87,30.33,-9999.0,Calm,Calm,-,N/A,,Clear,0,2012-03-18 03:50:00
6:20 AM,42.8,41.0,93,30.33,-9999.0,Calm,Calm,-,N/A,,Clear,0,2012-03-18 04:20:00
6:50 AM,42.8,41.0,93,30.36,-9999.0,Calm,Calm,-,N/A,,Clear,0,2012-03-18 04:50:00
7:20 AM,42.8,41.0,93,30.36,5.6,Calm,Calm,-,N/A,,Unknown,0,2012-03-18 05:20:00
7:50 AM,50.0,46.4,87,30.36,5.0,Calm,Calm,-,N/A,,Unknown,0,2012-03-18 05:50:00
8:20 AM,51.8,44.6,76,30.36,5.0,Calm,Calm,-,N/A,,Unknown,0,2012-03-18 06:20:00
8:50 AM,51.8,46.4,82,30.36,5.0,Calm,Calm,-,N/A,,Unknown,0,2012-03-18 06:50:00
9:20 AM,57.2,46.4,67,30.36,5.0,Calm,Calm,-,N/A,,Unknown,0,2012-03-18 07:20:00
9:50 AM,59.0,46.4,63,30.36,5.0,Calm,Calm,-,N/A,,Unknown,0,2012-03-18 07:50:00
10:20 AM,59.0,46.4,63,30.36,-9999.0,ESE,4.6,-,N/A,,Clear,110,2012-03-18 08:20:00
10:50 AM,60.8,46.4,59,30.39,-9999.0,ESE,4.6,-,N/A,,Clear,120,2012-03-18 08:50:00
11:20 AM,60.8,46.4,59,30.39,-9999.0,SSE,4.6,-,N/A,,Clear,160,2012-03-18 09:20:00
12:20 PM,64.4,46.4,52,30.36,-9999.0,South,9.2,-,N/A,,Clear,190,2012-03-18 10:20:00
12:50 PM,64.4,46.4,52,30.36,-9999.0,South,8.1,-,N/A,,Clear,180,2012-03-18 10:50:00
1:20 PM,66.2,46.4,49,30.36,-9999.0,SSW,8.1,-,N/A,,Clear,210,2012-03-18 11:20:00
1:50 PM,66.2,48.2,52,30.36,-9999.0,SSW,8.1,-,N/A,,Clear,200,2012-03-18 11:50:00
2:20 PM,66.2,48.2,52,30.36,-9999.0,SSW,8.1,-,N/A,,Clear,200,2012-03-18 12:20:00
2:50 PM,64.4,48.2,56,30.33,-9999.0,South,9.2,-,N/A,,Clear,190,2012-03-18 12:50:00
3:20 PM,64.4,48.2,56,30.33,-9999.0,South,9.2,-,N/A,,Clear,190,2012-03-18 13:20:00
3:50 PM,62.6,50.0,63,30.33,-9999.0,South,8.1,-,N/A,,Clear,190,2012-03-18 13:50:00
4:20 PM,62.6,50.0,63,30.33,-9999.0,South,8.1,-,N/A,,Clear,190,2012-03-18 14:20:00
4:50 PM,62.6,50.0,63,30.33,-9999.0,South,8.1,-,N/A,,Clear,190,2012-03-18 14:50:00
5:20 PM,60.8,50.0,68,30.33,-9999.0,South,6.9,-,N/A,,Clear,180,2012-03-18 15:20:00
5:50 PM,59.0,48.2,67,30.33,-9999.0,SW,6.9,-,N/A,,Clear,230,2012-03-18 15:50:00
6:20 PM,57.2,50.0,77,30.33,-9999.0,SW,6.9,-,N/A,,Clear,230,2012-03-18 16:20:00
6:50 PM,55.4,50.0,82,30.33,-9999.0,Calm,Calm,-,N/A,,Clear,0,2012-03-18 16:50:00
7:20 PM,55.4,50.0,82,30.33,-9999.0,Calm,Calm,-,N/A,,Clear,0,2012-03-18 17:20:00
7:50 PM,53.6,50.0,88,30.33,-9999.0,Calm,Calm,-,N/A,,Clear,0,2012-03-18 17:50:00
8:20 PM,51.8,48.2,88,30.33,-9999.0,Calm,Calm,-,N/A,,Clear,0,2012-03-18 18:20:00
8:50 PM,51.8,48.2,88,30.36,-9999.0,Calm,Calm,-,N/A,,Clear,0,2012-03-18 18:50:00
9:20 PM,50.0,46.4,87,30.36,-9999.0,NNW,4.6,-,N/A,,Clear,330,2012-03-18 19:20:00
9:50 PM,50.0,46.4,87,30.36,-9999.0,NNW,4.6,-,N/A,,Clear,330,2012-03-18 19:50:00
10:20 PM,48.2,46.4,93,30.36,-9999.0,North,4.6,-,N/A,,Clear,350,2012-03-18 20:20:00
10:50 PM,48.2,44.6,87,30.36,-9999.0,North,4.6,-,N/A,,Clear,350,2012-03-18 20:50:00
11:20 PM,48.2,44.6,87,30.36,-9999.0,North,5.8,-,N/A,,Clear,360,2012-03-18 21:20:00
11:50 PM,48.2,46.4,93,30.36,-9999.0,North,4.6,-,N/A,,Clear,350,2012-03-18 21:50:00